Wind_Speed
26 27 27 27 27 27 27 28 29 31 34 36 37 39 40 39 39 37 37 36 36 36 37 37 38 39 40 41 42 43 44 44 44 45 46 47 48 48 47 47 47 47 48 48 49 50 50 51 52 52 52 53 53 53 53 53 53 53 53 53 52 52 51 51 50 49 49 48 48 47 46 45 45 44 43 43 42 42 41 41 41 40 40 40 40 39
27 26 27 27 28 28 29 30 31 33 34 35 37 38 40 40 40 39 39 39 39 39 40 40 41 42 42 43 44 45 45 45 45 46 47 48 48 48 48 48 48 49 49 50 50 51 51 52 52 53 53 53 53 53 53 53 53 53 53 52 52 51 50 50 49 48 48 47 46 45 45 44 43 43 42 42 41 41 41 40 40 40 39 39 39 39
26 26 27 28 29 30 31 31 31 32 32 33 35 36 38 40 40 41 41 41 42 43 43 43 43 43 43 43 44 45 45 45 45 45 46 47 48 48 49 49 49 50 50 50 51 51 52 53 53 53 53 54 54 53 53 53 53 53 52 52 51 50 49 49 48 47 46 45 45 44 43 43 42 42 41 41 41 40 40 39 39 39 39 38 38 38
26 27 29 30 31 32 32 31 30 30 30 31 32 34 36 37 39 41 42 44 45 46 46 45 43 41 41 43 44 44 45 44 45 46 47 48 49 50 50 50 50 51 51 51 52 52 53 53 54 54 54 54 54 54 53 53 52 52 51 51 50 49 48 47 47 46 45 44 43 43 42 41 41 41 40 40 40 39 39 39 38 38 38 38 38 37
28 30 31 32 33 33 33 33 33 33 33 34 35 36 37 38 40 42 44 46 47 47 47 45 43 41 41 42 43 44 44 45 45 47 48 49 50 51 51 51 51 51 51 52 52 53 53 54 54 54 54 54 53 53 53 52 52 51 50 49 48 48 47 46 45 44 43 42 42 41 41 40 40 40 39 39 39 39 38 38 38 37 37 37 37 37
31 32 33 34 35 36 37 38 38 39 39 39 40 41 42 43 44 45 46 47 47 47 46 44 42 41 41 43 44 44 45 46 47 48 49 50 51 51 51 51 51 52 52 53 53 54 54 54 54 54 54 53 53 52 52 51 50 50 49 48 47 46 45 44 43 42 42 41 41 40 40 39 39 39 39 38 38 38 37 37 37 37 37 37 37 38
33 34 35 36 38 39 40 42 43 43 43 44 44 45 45 46 47 47 48 48 47 45 44 42 41 41 42 43 44 45 46 47 48 48 49 49 50 50 50 51 51 52 53 54 54 54 55 55 54 54 53 53 52 51 51 50 49 48 47 46 45 44 43 42 42 41 40 40 39 39 39 38 38 38 38 37 37 37 37 37 37 37 37 37 38 38
35 36 37 37 39 40 41 43 44 44 44 45 45 46 46 47 47 48 48 47 46 44 42 42 41 42 42 44 45 46 47 47 48 49 49 49 50 50 51 52 52 53 54 54 55 55 55 54 54 53 52 52 51 50 49 48 47 46 45 44 43 42 41 41 40 39 39 38 38 38 38 38 37 37 37 37 37 37 37 37 37 37 38 38 39 39
38 40 41 41 40 40 41 42 42 43 43 44 44 45 46 47 47 47 46 45 44 43 42 42 42 43 43 44 45 46 47 49 49 50 51 51 52 52 53 53 54 54 55 55 55 54 54 53 53 52 51 50 50 49 48 47 46 45 44 42 41 40 40 39 38 38 38 37 37 37 37 37 37 37 37 37 37 37 37 37 38 38 38 39 39 39
40 41 43 44 43 42 41 41 42 42 42 43 44 46 46 46 46 45 44 43 42 42 42 42 43 44 44 45 46 47 48 50 52 53 53 53 54 54 54 54 55 55 55 54 54 53 53 52 51 50 50 49 48 47 46 45 44 43 41 40 39 39 38 37 37 37 37 37 37 37 37 37 37 37 37 37 37 37 38 38 38 39 39 38 38 37
40 42 43 44 44 44 43 42 42 42 43 44 45 46 46 45 43 42 41 41 41 41 42 43 44 45 46 46 47 48 49 51 53 54 54 54 55 55 55 55 55 54 54 53 53 52 51 50 50 49 48 47 46 46 45 43 42 41 39 38 38 37 37 36 36 36 36 36 36 36 36 36 37 37 37 38 38 38 39 39 39 38 38 37 36 34
42 43 44 45 45 45 44 44 45 45 45 45 45 45 44 43 42 41 41 42 42 42 43 44 46 47 47 48 49 50 51 52 53 54 55 55 55 55 54 54 54 53 53 52 51 51 50 49 48 47 47 46 45 44 43 41 40 39 38 37 36 36 36 36 35 36 36 36 36 36 36 37 37 37 38 38 39 39 39 38 38 37 35 34 33 32
45 46 46 46 46 45 45 46 46 46 45 45 44 44 44 44 43 43 43 44 45 45 45 46 47 49 49 49 50 51 53 54 54 54 54 54 54 54 53 53 52 52 50 50 49 49 48 47 47 46 45 44 44 42 41 40 38 37 36 36 35 35 35 35 35 35 35 36 36 36 37 37 38 38 38 39 39 38 38 37 35 34 33 32 31 31
46 45 45 45 45 45 45 45 45 45 45 44 44 43 44 44 45 45 46 47 48 48 48 48 48 49 50 51 52 53 54 54 54 54 53 53 53 52 51 51 50 49 48 46 46 47 46 45 45 44 44 43 42 41 40 38 37 36 35 35 35 35 35 35 35 35 36 36 36 37 37 37 38 38 38 38 37 37 35 34 33 32 31 31 31 31
43 43 43 43 43 43 43 43 43 43 43 43 43 43 44 46 47 48 48 49 51 51 50 49 49 50 51 52 52 53 53 53 53 52 51 51 51 50 49 48 48 47 45 43 43 44 44 43 42 42 42 41 40 39 38 37 36 35 35 35 35 35 35 35 35 36 36 36 37 37 37 37 37 37 37 36 35 34 33 32 31 31 31 32 33 34
40 40 40 41 41 40 40 41 41 41 42 43 43 44 46 48 49 50 50 51 52 52 51 50 50 50 51 52 52 52 52 52 52 51 49 48 48 48 46 45 45 44 43 41 41 41 42 41 41 40 40 39 38 37 36 36 35 35 35 35 35 35 35 36 36 36 36 36 37 37 37 37 36 36 35 34 33 32 31 31 31 32 33 34 35 36
37 38 38 38 38 38 39 39 39 40 42 43 44 46 47 49 51 51 52 52 52 52 51 50 50 50 50 51 51 51 51 50 51 50 48 46 45 44 43 42 41 41 40 39 39 39 39 39 39 38 38 37 36 36 35 35 35 35 35 35 35 35 35 35 36 36 36 36 36 36 35 35 34 34 33 32 32 32 32 33 33 35 36 37 37 38
36 37 37 37 38 38 38 39 39 41 42 44 45 47 48 49 50 50 50 50 50 50 50 50 50 49 49 50 50 51 50 49 49 49 47 44 42 41 40 39 39 39 38 38 37 37 37 37 37 36 35 35 35 34 34 34 34 34 35 35 35 35 35 35 35 35 35 35 35 34 34 33 33 32 32 32 32 33 34 35 36 37 38 39 39 40
37 37 37 37 38 39 39 39 40 41 42 44 45 46 47 47 48 48 48 48 48 48 48 48 49 49 49 48 49 50 49 47 47 47 45 42 40 39 38 37 37 37 37 36 35 35 35 35 35 34 34 33 33 33 33 33 34 34 34 34 34 34 34 34 34 34 34 33 33 33 33 32 32 33 33 33 34 35 36 37 38 39 40 40 41 41
38 38 38 38 38 39 39 40 40 41 42 43 43 44 45 45 45 46 46 47 47 47 48 48 48 48 47 47 47 47 47 45 45 44 42 40 38 38 37 35 35 35 35 34 33 33 33 33 33 32 32 32 32 32 32 33 33 33 33 33 33 33 33 33 33 32 32 32 32 32 32 33 33 34 34 35 36 37 38 39 39 40 41 41 42 42
38 38 38 37 37 38 40 40 40 40 41 42 42 43 44 44 44 45 46 46 46 47 47 46 46 46 45 44 44 45 44 43 42 41 40 38 37 36 35 34 33 33 32 31 30 30 30 31 31 30 30 31 31 31 31 32 32 32 32 32 32 32 32 32 32 32 32 32 32 32 33 33 34 35 36 37 37 38 39 40 40 41 42 42 43 44
37 37 38 37 37 38 39 40 40 40 40 41 42 43 43 43 44 44 45 45 45 45 45 44 43 43 42 42 42 42 42 41 40 39 38 36 35 34 33 32 31 31 30 29 28 28 29 29 29 29 29 29 30 30 31 31 31 31 31 31 31 31 31 31 31 31 32 32 33 33 34 35 36 36 37 38 39 39 40 41 41 42 43 43 44 44
36 36 37 37 37 38 39 39 40 40 41 41 41 42 43 43 43 44 44 43 43 42 42 41 41 40 40 39 39 40 40 39 38 37 36 35 34 33 32 30 30 29 29 27 26 26 27 27 27 27 28 28 29 29 30 30 30 30 30 30 31 31 31 31 31 32 32 33 34 34 35 36 37 38 39 40 40 41 41 42 42 43 43 44 45 45
36 36 36 37 37 38 39 40 40 41 41 41 41 42 42 42 42 42 42 41 40 39 39 38 37 37 36 36 37 38 38 37 36 35 34 33 33 32 30 29 28 27 27 26 25 25 26 27 26 26 26 27 28 28 28 29 29 30 30 30 30 31 31 31 32 32 33 34 35 36 37 38 39 39 40 41 41 42 42 42 43 43 44 45 45 46
36 36 37 38 38 39 39 40 40 41 41 41 41 41 41 41 40 40 39 38 37 37 36 35 35 34 34 34 35 36 36 35 34 33 32 32 31 30 29 27 26 26 26 25 24 24 25 25 25 25 25 25 26 27 27 28 28 29 29 30 30 31 31 32 32 33 34 35 36 37 38 39 39 40 41 41 41 42 42 43 43 44 44 45 45 45
37 37 38 38 39 39 40 40 40 40 40 40 39 39 38 38 37 37 36 35 34 34 34 33 33 32 32 32 33 34 34 33 31 30 30 29 29 28 27 26 25 26 26 25 24 24 24 24 24 23 23 24 24 25 26 26 27 28 29 29 30 31 31 32 33 34 35 36 37 37 38 39 39 40 40 41 41 41 42 42 43 43 44 44 45 45
37 37 38 38 39 39 39 39 39 39 39 38 37 36 35 35 34 34 33 33 32 32 32 32 31 31 30 30 31 32 32 31 29 28 28 27 27 27 26 25 25 25 26 25 24 23 23 23 22 22 22 22 23 24 25 25 26 27 28 29 30 31 32 33 34 34 35 36 36 37 37 38 38 39 39 40 40 40 41 41 42 43 43 44 44 44
36 37 37 38 38 38 38 38 37 37 36 35 35 34 33 32 32 31 31 31 30 30 31 30 30 29 29 28 29 30 30 28 27 26 26 26 25 25 25 25 25 26 26 25 24 23 23 22 22 21 21 21 21 22 23 24 26 27 28 29 30 31 32 33 33 34 34 35 35 36 36 37 37 37 38 38 39 39 40 40 41 42 42 43 43 44
36 36 36 37 36 36 36 35 35 34 33 33 32 31 31 30 30 30 30 30 29 28 29 29 28 27 27 27 27 27 27 26 25 24 24 24 24 24 24 25 25 26 26 25 25 23 22 21 21 21 21 20 20 21 22 23 25 26 27 28 29 30 31 31 32 32 33 33 34 34 35 35 36 36 37 37 38 38 39 40 40 41 42 42 43 44
35 35 35 35 34 34 33 32 31 31 30 30 30 30 29 29 28 28 28 28 27 27 27 27 26 25 25 24 24 24 24 24 23 23 23 23 23 23 23 24 25 26 26 26 25 23 22 21 21 22 22 21 21 21 22 23 24 25 26 27 28 29 30 30 31 31 32 32 33 33 34 35 35 36 36 37 37 38 38 39 40 41 42 43 44 44
34 33 33 32 32 31 30 29 29 28 28 28 28 28 28 27 27 27 27 27 26 26 25 25 24 23 23 22 21 21 22 22 22 22 22 23 23 23 23 23 24 25 25 26 26 25 24 23 22 22 23 23 22 22 23 23 24 25 26 27 28 28 29 30 30 31 31 32 33 33 34 34 35 35 36 36 37 38 38 39 40 41 42 43 44 46
31 31 30 30 29 28 27 27 27 27 27 27 27 26 26 26 26 26 26 25 25 24 24 23 22 21 20 20 20 20 21 21 21 21 21 22 22 23 23 23 24 24 25 26 27 27 27 25 24 24 24 24 24 24 24 25 26 26 27 27 28 29 29 30 30 31 31 32 32 33 34 34 35 35 36 36 37 38 39 40 41 42 43 44 45 46
29 28 28 27 27 26 26 26 26 26 25 25 25 25 25 25 25 25 24 24 23 22 21 20 19 19 18 18 19 19 20 21 21 21 21 21 22 22 22 23 24 24 25 25 26 27 28 28 27 26 26 25 25 26 26 27 27 28 28 28 29 29 30 30 31 31 32 32 32 33 33 34 35 35 36 36 37 38 39 40 41 42 43 44 45 46
27 26 26 26 25 25 25 25 25 24 24 24 24 24 24 23 23 23 22 21 20 20 19 18 17 17 17 17 18 19 20 21 21 21 21 22 22 22 23 23 24 25 26 26 27 28 28 29 29 28 28 27 27 27 27 28 28 28 29 29 29 30 30 31 31 31 32 32 33 33 34 34 35 35 36 36 37 38 39 39 40 42 43 44 44 45
25 25 25 24 24 24 24 24 23 23 23 23 22 22 22 22 21 20 19 18 17 16 16 16 16 16 16 17 17 18 19 20 21 22 22 23 23 23 24 24 25 26 27 28 28 29 29 29 30 30 30 29 28 28 28 29 29 29 29 30 30 31 31 31 32 32 32 33 33 33 34 34 35 35 36 36 37 37 38 38 39 40 41 42 43 44
24 24 23 23 23 23 23 23 22 22 22 21 21 21 20 20 19 18 16 15 14 14 14 15 15 16 17 17 17 18 19 20 21 22 23 24 24 24 25 26 27 28 28 29 29 30 30 30 31 31 31 31 30 29 29 29 30 30 30 30 30 31 32 32 33 33 33 33 34 34 34 35 35 35 35 35 36 36 36 37 37 38 38 39 40 41
22 22 22 22 22 22 22 21 21 20 20 20 19 19 18 17 16 15 14 13 13 13 14 15 15 16 17 17 18 18 19 20 21 23 24 24 25 25 26 27 28 29 29 30 31 31 31 31 31 31 31 31 31 31 30 30 30 30 30 30 31 31 32 33 33 34 34 34 35 35 35 35 35 35 35 35 35 35 34 34 34 35 35 35 36 37
21 21 21 21 21 20 20 20 20 19 19 18 18 17 16 15 14 13 12 12 12 13 14 15 16 16 17 18 18 19 20 21 22 23 24 25 26 27 27 28 28 29 30 31 32 32 32 32 32 32 32 32 31 31 31 31 31 31 31 31 31 32 32 33 33 34 34 35 35 35 35 35 35 35 35 34 34 34 33 33 32 33 33 33 33 33
20 19 19 19 19 19 19 18 18 18 17 17 16 15 14 13 12 12 11 11 12 13 14 15 16 17 18 19 20 21 21 22 23 24 25 26 27 28 28 29 29 30 31 32 32 33 33 33 33 33 33 33 32 31 31 32 32 32 32 31 31 32 32 33 33 34 34 34 35 35 35 35 35 35 34 34 34 34 33 33 32 32 32 32 32 32
18 18 18 18 18 18 17 17 17 16 16 15 15 14 13 12 11 11 11 12 12 13 14 15 16 17 18 20 21 22 23 23 24 25 26 27 28 28 29 30 30 31 31 32 32 33 33 33 34 34 34 34 33 32 32 32 32 33 33 33 32 32 32 32 33 33 34 34 34 34 35 35 35 34 34 34 34 34 34 33 33 33 33 33 33 33
17 17 17 17 17 17 16 16 15 15 14 13 13 12 12 11 11 11 12 12 13 14 15 16 17 18 19 20 22 23 24 24 25 26 27 27 28 29 30 31 31 32 32 32 32 33 33 33 33 33 33 33 33 33 32 32 33 33 34 34 33 33 32 32 33 33 33 33 34 34 34 35 35 34 34 34 34 34 34 34 33 33 34 34 35 35
17 17 17 16 16 16 15 15 14 13 13 12 11 11 11 11 11 12 12 13 14 15 16 16 17 18 19 21 22 24 24 25 26 27 27 28 29 29 30 31 32 32 32 32 32 32 32 32 33 33 33 33 33 33 32 32 33 33 34 34 34 33 33 32 32 33 32 33 33 34 34 35 35 35 35 34 34 34 33 33 34 34 34 35 35 35
16 16 16 15 15 15 14 14 13 12 11 11 11 11 11 11 12 12 13 14 15 15 16 17 17 18 19 20 22 23 25 26 26 27 28 28 29 30 30 31 32 32 32 32 32 32 32 32 32 32 32 32 32 32 32 32 32 33 33 34 34 34 33 32 32 32 32 32 33 33 34 35 35 35 35 35 34 34 34 33 34 34 35 35 35 35
15 15 15 15 15 14 14 13 12 11 11 11 11 11 12 12 13 13 14 15 15 16 17 17 18 18 19 19 20 22 24 25 26 27 28 28 29 29 30 30 31 32 32 32 32 31 31 31 31 31 31 32 32 32 32 32 32 32 33 33 34 34 33 33 33 32 32 32 32 33 34 35 36 36 36 35 35 35 34 34 34 34 35 35 35 35
15 15 14 14 14 13 13 12 12 11 11 11 12 12 13 14 14 15 15 16 17 17 18 19 19 19 20 20 21 21 23 24 25 27 28 28 29 29 30 30 30 31 31 31 31 31 30 30 30 30 30 30 31 31 31 32 32 32 32 32 33 33 33 33 33 33 33 33 33 34 35 36 37 37 37 37 36 36 35 35 36 36 36 36 36 36
14 14 14 14 13 13 12 12 12 12 12 12 13 14 14 15 16 16 17 17 18 19 20 20 21 21 21 22 22 22 23 24 25 26 27 28 28 29 29 30 30 30 30 30 30 30 30 30 29 29 29 29 30 30 31 31 32 32 32 32 32 32 32 32 32 33 33 33 34 35 36 37 37 38 38 38 37 37 37 37 38 38 38 38 38 38
14 14 14 14 13 13 13 13 12 12 13 13 14 15 16 16 17 18 18 19 19 20 21 21 22 22 23 23 24 24 24 25 25 26 26 27 28 28 29 29 30 30 30 29 29 29 28 29 29 29 29 29 29 29 30 31 32 32 32 33 32 32 32 32 32 33 33 34 35 35 36 37 38 39 39 39 39 38 38 38 39 40 41 41 41 40
14 14 14 14 14 13 13 13 13 13 14 14 15 16 17 18 18 19 19 20 20 21 22 22 23 24 24 25 25 25 26 26 26 26 27 27 28 28 28 29 29 29 29 28 28 27 27 27 28 28 29 29 29 29 29 30 31 32 32 33 33 33 33 33 33 33 33 34 35 36 37 38 39 40 41 40 40 40 40 40 41 42 43 44 44 44
15 14 14 14 14 14 14 14 14 14 15 16 17 17 18 19 19 20 20 21 21 22 22 23 24 24 25 25 26 26 26 27 27 27 27 27 28 28 29 29 29 28 28 28 27 26 26 26 26 27 28 29 29 29 30 31 31 32 32 33 33 33 34 34 34 34 34 35 35 36 37 38 40 41 42 42 42 42 42 43 43 44 45 46 46 46
15 15 15 15 14 14 14 15 15 15 16 17 17 18 19 20 20 20 21 21 22 22 23 24 24 25 25 26 26 26 27 27 27 27 27 28 28 29 29 29 29 29 28 27 26 25 24 23 23 25 27 28 29 30 30 31 31 32 32 32 33 34 34 34 35 35 35 35 36 37 38 39 40 41 42 43 44 44 44 45 46 46 47 48 48 48
15 15 15 15 15 15 15 15 16 16 17 17 18 19 19 20 21 21 21 22 22 22 23 24 24 25 25 26 26 26 27 27 27 27 27 28 29 29 30 30 31 30 30 29 27 26 24 22 21 21 23 26 28 29 30 31 32 32 32 32 33 34 35 35 35 36 36 36 37 38 38 39 40 42 43 44 45 46 46 46 47 48 49 50 50 50
Wind_Direction
272 274 276 278 278 276 272 267 263 262 263 265 268 272 275 278 280 281 280 280 280 280 280 281 281 282 283 284 285 286 286 286 286 287 287 288 289 290 291 292 292 292 292 293 294 295 296 297 298 298 299 300 300 300 300 300 300 300 300 300 300 300 300 300 300 299 299 299 299 299 299 298 298 297 297 297 296 296 296 296 296 296 297 297 297 297
277 279 281 282 281 277 273 269 266 264 265 267 271 274 276 277 278 277 277 278 279 280 281 282 283 284 285 286 286 286 286 286 286 286 287 288 289 290 290 291 291 292 292 293 294 295 296 297 298 299 299 300 300 300 300 300 300 300 300 300 300 300 299 299 299 299 299 299 298 298 298 297 297 296 296 296 296 296 296 296 296 297 297 297 297 297
282 283 280 277 272 269 267 267 267 268 270 273 275 276 276 277 276 277 277 278 279 280 282 283 284 285 286 286 286 287 287 287 286 286 286 287 288 289 290 291 291 292 292 293 294 295 296 297 298 299 299 299 300 300 300 300 300 300 300 300 299 299 299 299 299 298 298 298 298 297 297 296 296 295 295 295 295 296 296 296 296 297 297 297 297 297
280 277 272 269 267 266 267 269 272 275 277 277 276 275 275 276 277 279 280 281 282 283 283 283 284 285 285 285 286 287 288 288 286 285 285 286 287 288 290 290 291 292 292 293 294 296 297 297 298 299 299 299 299 300 300 300 299 299 299 299 299 299 298 298 298 298 297 297 296 296 295 295 295 295 295 295 295 296 296 296 296 297 297 297 297 297
267 265 264 264 265 266 267 270 272 274 276 275 275 275 276 278 281 282 283 285 286 286 285 285 284 283 283 284 286 287 288 287 286 286 286 286 288 289 289 290 291 292 293 294 295 296 297 297 298 298 298 299 299 299 299 299 299 299 299 298 298 298 298 297 297 297 296 296 295 295 295 294 294 294 294 295 295 296 296 296 296 297 297 297 297 298
256 256 258 259 261 263 265 267 269 271 272 273 274 276 278 281 283 285 286 287 288 288 287 286 285 284 284 284 285 286 287 287 287 287 287 288 289 289 289 290 291 292 293 294 295 296 296 297 297 298 298 298 299 299 298 298 298 298 298 298 297 297 297 297 296 296 295 295 294 294 294 294 294 294 295 295 295 296 296 296 296 297 297 298 298 298
256 255 256 257 259 261 263 266 269 271 273 273 274 275 278 280 283 285 287 287 288 288 287 287 286 285 284 284 285 286 287 287 288 289 290 290 290 290 291 291 292 293 293 294 295 295 296 296 297 297 298 298 298 298 298 298 298 298 297 297 297 297 296 296 295 295 294 294 294 294 294 294 294 295 295 295 296 296 296 297 297 297 298 298 299 299
262 262 262 262 262 263 264 266 268 271 273 273 274 276 278 280 283 285 286 287 287 287 287 287 286 285 284 284 285 286 287 288 289 290 291 292 293 293 293 293 293 293 294 295 295 296 296 297 297 298 298 298 298 298 298 298 297 297 297 297 296 296 295 295 294 294 294 294 293 294 294 294 294 295 295 296 296 296 297 297 298 298 298 299 299 299
264 267 269 269 268 268 268 268 269 271 273 274 276 278 280 282 284 286 287 287 287 287 287 286 286 285 285 285 286 286 287 288 290 291 292 293 294 294 294 294 294 294 295 295 295 296 297 297 298 298 298 298 298 298 297 297 297 297 296 296 295 295 294 294 294 294 293 293 294 294 294 295 295 296 296 296 297 297 297 298 298 299 299 299 299 299
261 265 268 270 272 273 275 275 275 275 276 277 279 280 282 284 286 286 286 286 286 286 287 286 286 285 285 285 286 287 288 289 290 291 293 293 293 294 294 294 294 294 295 295 296 296 297 297 298 298 298 297 297 297 297 296 296 296 295 295 295 294 294 294 293 293 294 294 294 294 295 295 296 296 297 297 297 298 298 298 298 299 299 299 299 299
260 262 265 269 272 275 278 280 280 279 279 279 280 282 283 284 285 285 284 283 284 285 286 287 286 286 286 287 287 288 289 290 291 292 293 293 293 294 294 294 294 295 295 296 296 297 297 297 297 297 297 297 297 296 296 296 295 295 295 294 294 294 294 294 294 294 294 294 295 295 296 296 296 297 297 298 298 298 298 298 299 299 299 299 299 300
262 264 266 269 273 276 279 280 280 279 279 280 280 281 282 282 282 282 282 283 284 285 287 287 287 287 288 288 289 290 291 292 292 293 293 294 294 294 294 294 295 295 295 296 297 297 297 297 297 297 297 296 296 296 295 295 295 295 294 294 294 294 294 294 294 294 294 295 295 296 296 297 297 297 297 298 298 298 298 299 299 299 299 299 300 301
265 267 269 271 274 276 278 279 279 279 279 279 280 281 281 282 282 282 282 283 284 286 287 288 288 288 289 290 291 291 291 292 292 292 293 293 293 293 294 294 295 295 296 297 297 297 297 297 297 297 296 296 296 295 295 295 295 294 294 294 294 294 293 293 294 294 294 295 295 296 296 297 297 297 298 298 298 299 299 299 299 300 300 301 301 302
268 270 272 274 275 276 277 278 278 278 279 279 280 281 282 283 283 282 282 284 285 287 288 289 289 289 289 290 290 291 291 291 291 291 292 292 292 293 293 294 295 295 296 297 297 297 297 297 297 296 296 296 295 295 295 295 295 295 294 294 294 294 294 294 294 294 295 295 296 296 297 297 297 298 298 299 299 300 300 300 300 301 302 302 303 303
271 272 273 274 275 276 277 278 279 279 280 281 282 282 283 282 282 282 283 284 286 287 288 289 289 289 289 290 290 290 290 290 290 291 291 292 292 292 293 294 295 295 296 296 297 296 296 296 296 295 295 295 295 295 295 295 295 295 295 294 294 294 294 295 295 295 296 296 296 297 297 298 299 299 300 300 301 301 301 302 302 302 303 304 304 304
272 273 274 275 276 277 278 279 280 281 282 282 282 281 281 281 281 282 283 284 285 286 288 288 288 289 289 289 289 289 289 289 290 290 291 291 292 292 293 294 295 295 296 296 296 295 295 295 295 294 294 294 295 295 295 295 295 295 295 295 295 295 295 296 296 296 297 297 298 298 299 300 300 301 302 302 302 303 303 303 303 304 304 304 304 304
273 274 274 276 277 278 280 282 282 282 282 281 281 280 280 280 281 282 282 283 284 285 286 287 287 288 289 289 289 289 289 289 289 290 291 291 292 293 294 295 295 295 295 295 295 294 294 294 294 294 294 294 295 295 295 295 295 295 295 295 295 295 296 296 296 297 297 298 299 299 300 301 302 303 303 304 304 304 304 304 304 304 304 304 304 304
273 274 275 277 278 279 281 281 281 281 280 279 279 280 280 280 281 281 282 283 284 285 286 286 287 287 288 288 288 288 288 289 289 290 291 292 292 293 294 295 295 295 295 294 294 293 293 293 293 293 294 294 295 295 295 295 295 295 295 295 295 295 296 296 296 297 297 298 299 301 302 302 303 304 304 304 304 304 304 304 304 304 304 304 304 304
274 275 276 277 278 279 279 279 279 279 279 278 279 279 280 280 281 282 283 283 284 285 286 287 287 287 287 288 288 288 289 289 290 291 292 293 294 294 295 295 295 294 294 293 293 293 293 293 293 293 294 294 295 295 295 294 294 294 294 294 295 295 295 296 296 297 298 299 300 301 302 303 304 304 304 304 304 304 304 304 304 304 304 304 304 304
275 275 276 276 277 278 278 278 278 278 279 279 280 280 280 281 282 283 284 284 285 286 286 287 287 287 288 288 288 289 290 291 292 292 293 294 295 294 295 295 295 294 293 293 293 293 293 293 293 294 295 295 295 295 295 294 294 294 294 294 294 294 295 295 296 297 299 300 301 302 303 303 303 304 304 304 304 304 304 304 304 304 304 304 304 304
275 275 276 276 276 277 277 278 278 279 280 280 281 281 281 282 283 284 284 285 286 286 287 287 287 288 288 289 289 290 291 292 293 293 294 295 295 294 294 295 294 293 292 293 293 294 294 294 294 295 296 296 296 295 295 295 295 294 294 294 294 294 295 296 297 298 299 300 301 302 302 303 303 303 304 304 304 304 304 304 304 304 304 304 304 304
275 275 276 276 276 277 278 279 280 280 280 281 282 282 283 284 284 285 285 286 286 287 287 288 288 289 289 290 290 291 292 293 293 294 295 295 294 294 294 294 293 293 292 293 294 295 295 295 296 297 298 297 297 296 296 295 295 294 294 294 294 295 295 296 297 298 300 300 301 302 302 303 303 303 303 303 304 304 304 304 304 304 304 304 304 304
274 275 276 276 277 278 279 280 281 281 282 282 283 283 284 285 285 285 285 286 286 287 287 288 289 290 291 291 292 292 293 293 294 295 295 295 294 294 294 294 293 293 293 294 296 297 297 297 298 299 299 298 297 296 296 295 295 294 294 294 295 295 296 297 298 299 300 301 301 302 302 302 302 303 303 303 303 303 303 303 304 304 304 304 304 303
274 275 276 277 278 279 280 281 282 283 283 284 284 285 285 286 286 286 286 287 287 288 289 290 291 291 292 292 293 293 293 294 295 295 295 294 294 293 293 294 294 293 293 295 297 298 298 298 299 299 299 298 297 296 295 295 294 294 294 294 295 295 296 297 298 299 300 300 300 301 301 301 301 302 302 302 302 303 303 303 303 303 303 303 303 303
275 276 277 279 280 281 282 283 283 284 285 285 285 286 286 287 287 287 288 289 289 290 291 291 292 291 292 292 292 292 292 293 294 294 294 294 294 293 294 294 294 294 294 296 298 299 299 299 300 300 299 297 296 295 294 294 293 293 293 294 294 295 296 296 297 298 298 298 299 299 299 300 300 301 301 301 302 302 303 303 303 303 303 303 303 302
277 278 279 281 282 283 284 284 285 285 286 286 286 287 287 288 288 289 289 290 290 291 292 291 291 291 292 292 291 291 292 293 294 294 293 293 293 293 294 296 295 294 294 297 299 299 299 299 299 299 298 296 294 293 292 292 292 292 292 292 293 293 294 294 295 296 296 297 297 298 299 299 300 301 301 302 302 303 303 303 303 303 303 303 302 302
279 281 282 283 284 285 285 285 286 286 287 287 287 287 288 288 289 290 290 290 291 291 291 291 291 292 292 292 291 291 292 293 294 293 293 293 292 293 295 297 296 295 295 297 299 300 300 299 299 298 296 294 293 292 291 291 291 291 291 291 292 292 293 294 294 295 296 297 298 299 299 300 301 301 302 302 303 303 303 303 303 303 302 302 302 302
282 283 284 285 285 286 286 286 287 287 287 288 288 288 289 289 290 290 290 291 291 292 291 291 291 292 292 292 291 291 292 292 293 293 293 293 293 294 297 298 297 296 297 298 299 300 300 300 299 297 296 294 293 293 292 292 292 292 292 293 293 293 294 295 296 297 298 299 300 300 301 302 302 302 303 303 303 303 303 303 303 302 302 302 302 301
284 285 285 285 286 286 287 287 287 288 288 289 289 290 290 291 291 291 291 292 292 292 292 292 292 293 292 292 292 291 291 292 292 293 293 293 294 296 299 299 299 298 298 298 298 299 300 299 298 297 296 296 296 296 296 296 296 296 296 296 296 297 297 298 299 299 300 301 301 302 302 303 303 304 304 304 304 304 304 304 303 303 302 302 302 302
285 286 286 286 286 287 287 288 288 289 289 290 290 291 291 292 292 292 292 293 294 294 293 293 293 293 292 292 291 291 291 292 293 293 294 295 296 298 300 300 300 300 300 299 298 297 298 299 299 299 299 299 300 301 301 300 300 300 300 300 300 300 300 301 301 302 302 303 303 304 304 305 305 305 305 305 305 305 305 305 304 304 303 303 303 303
286 286 286 286 287 288 288 289 289 290 290 290 291 291 292 292 293 293 294 295 295 295 295 295 294 294 293 292 291 290 291 292 293 294 294 296 298 300 302 302 301 302 302 302 301 300 299 299 300 301 302 303 303 304 304 303 303 302 302 302 302 302 303 303 303 304 304 305 306 306 307 307 308 307 307 307 307 307 306 306 306 305 305 305 305 304
286 286 287 287 288 289 289 289 290 290 291 291 291 292 293 294 294 295 296 296 297 296 296 295 295 294 294 293 292 292 292 293 295 296 296 297 299 302 303 303 303 304 304 304 305 305 305 303 303 303 303 304 305 306 306 305 305 304 304 304 305 305 305 305 306 307 308 308 309 309 310 310 310 309 309 309 309 308 308 308 307 307 307 306 306 306
287 287 288 289 289 290 290 290 291 291 291 292 293 294 295 295 296 297 297 298 297 297 296 295 295 295 295 296 295 295 295 296 297 298 299 299 301 303 304 304 304 305 306 306 306 307 307 307 306 305 304 305 307 307 308 307 307 307 307 307 307 308 308 308 309 310 311 311 312 312 312 311 311 311 310 310 310 310 310 310 309 309 309 308 308 307
288 289 290 290 291 291 291 291 292 292 293 294 296 296 297 297 298 298 298 298 297 297 296 296 296 296 297 298 298 298 298 299 299 300 301 302 304 305 306 306 306 307 307 308 308 309 309 309 309 308 307 307 308 310 310 310 309 309 310 310 311 311 311 312 312 313 313 314 313 313 313 312 312 312 312 312 312 312 312 311 311 311 311 310 310 309
290 290 291 291 291 291 291 292 293 295 296 297 298 299 299 299 299 299 298 298 297 297 297 297 298 299 299 300 300 300 301 301 302 302 303 305 306 307 308 309 310 310 310 311 311 312 312 312 312 311 311 310 310 311 312 312 312 312 313 313 314 315 315 315 315 315 315 315 315 314 314 313 313 313 313 313 314 314 314 314 314 314 313 313 312 311
291 291 291 291 291 291 293 294 296 297 298 299 300 300 300 300 299 299 299 298 298 299 299 300 299 300 300 301 301 302 303 303 303 303 304 306 307 309 311 313 313 314 314 315 315 315 315 315 315 314 313 313 313 313 313 313 314 314 315 316 317 317 318 317 317 317 317 316 316 315 315 314 314 315 315 315 316 317 317 317 317 316 315 314 314 313
290 290 290 291 292 293 295 297 298 300 300 301 301 301 300 300 300 300 300 301 301 302 302 301 301 301 301 301 302 303 303 303 304 305 306 307 309 312 315 316 317 318 319 319 319 319 318 318 317 316 316 315 316 316 316 315 315 315 317 318 319 319 319 319 319 318 318 318 317 316 316 316 316 316 317 317 318 319 319 320 319 318 317 315 315 314
289 290 291 292 293 295 297 300 301 302 302 302 302 301 301 301 301 301 302 303 303 303 303 302 302 302 302 303 303 304 304 305 306 307 309 310 312 315 318 320 321 322 323 323 323 323 322 321 320 319 318 317 317 318 318 318 317 317 318 319 320 321 321 320 320 319 319 318 318 317 317 317 317 318 319 319 320 321 321 321 321 319 318 316 315 315
289 291 292 293 296 298 300 302 303 303 303 303 302 302 301 301 301 302 302 303 303 302 302 302 303 303 304 305 305 306 307 308 310 311 313 315 317 318 321 323 324 325 325 326 326 326 325 324 323 322 320 319 319 319 319 319 319 319 319 320 321 321 321 321 320 320 319 319 318 318 318 318 318 319 321 322 323 324 324 324 324 322 320 319 317 316
290 292 293 295 298 300 302 302 303 303 303 303 302 301 301 301 301 301 301 300 300 300 300 301 303 304 305 307 308 309 311 312 313 315 317 319 320 322 323 325 326 327 327 327 327 327 327 325 324 323 321 321 320 321 321 321 320 319 319 320 321 321 321 321 320 320 319 319 319 319 319 319 319 321 323 325 327 328 329 329 328 327 325 323 321 320
292 293 295 297 299 301 301 302 302 302 302 301 301 300 300 300 300 300 299 299 299 299 301 303 305 308 309 310 311 313 314 316 317 319 321 322 323 324 325 326 326 327 328 328 328 328 327 326 324 323 322 321 321 321 321 321 320 320 320 320 321 321 321 321 320 320 320 320 320 320 320 320 321 323 325 328 331 333 333 333 332 331 329 327 325 324
292 294 295 297 299 300 300 300 301 301 300 300 299 298 297 297 297 297 298 299 300 302 304 307 311 314 316 316 316 316 318 319 320 321 323 323 325 325 326 326 327 327 327 328 328 328 327 326 324 323 322 321 321 321 321 320 320 319 319 319 319 320 320 320 320 321 321 322 321 321 321 322 323 326 328 331 334 336 337 337 336 334 332 330 328 328
292 294 295 297 297 298 298 298 298 298 298 297 296 294 293 292 292 293 295 297 299 302 305 308 311 314 318 320 320 320 320 321 321 322 323 324 324 325 326 326 326 327 327 327 328 327 326 325 324 323 322 321 320 320 320 319 319 318 318 318 319 319 320 320 320 321 322 323 323 324 324 325 326 328 330 333 336 338 339 339 338 336 334 332 331 330
292 293 294 295 295 295 296 296 295 295 296 295 293 291 289 289 289 290 292 295 297 300 303 306 308 311 314 317 319 320 321 321 321 322 322 323 324 324 325 326 326 326 326 327 327 327 326 325 324 322 321 320 320 319 318 318 317 317 317 318 319 320 321 321 321 322 323 324 325 326 327 327 328 329 332 334 337 339 340 340 339 337 336 334 333 332
290 292 292 293 293 293 293 293 293 294 294 292 290 288 287 287 288 289 291 294 297 299 302 304 307 309 311 313 315 317 318 319 320 320 321 322 322 323 324 325 325 326 326 327 327 327 326 325 323 321 320 319 318 318 317 316 316 316 317 318 319 320 321 322 323 324 325 327 328 329 329 329 330 331 332 334 337 339 340 340 340 338 337 335 335 334
289 290 290 291 291 292 291 292 292 293 292 290 288 287 287 287 288 290 292 295 298 301 303 305 307 309 310 311 312 313 315 316 317 318 319 320 320 321 322 323 324 325 326 327 327 327 326 325 323 321 319 318 317 316 316 316 316 317 317 318 319 320 322 323 325 326 327 329 330 330 330 330 331 331 332 334 336 338 340 340 340 339 338 337 336 336
288 288 289 290 290 290 291 291 291 291 289 287 286 286 287 288 290 292 294 297 299 302 304 306 307 309 310 311 311 312 313 313 314 315 316 317 318 319 321 322 323 325 326 327 327 327 326 325 323 320 319 317 317 316 316 316 316 317 318 319 320 322 324 325 327 328 329 330 331 331 331 331 331 331 332 334 335 337 339 341 341 340 339 338 338 338
288 289 289 289 290 290 290 290 289 288 287 286 286 286 287 289 291 293 296 298 301 303 305 307 308 309 310 311 311 312 313 313 314 314 315 315 316 317 319 320 322 324 325 327 327 327 327 325 323 321 319 318 317 317 317 317 317 318 320 321 322 324 325 327 328 329 330 331 331 332 332 332 332 332 332 333 335 337 339 341 341 341 340 339 339 339
288 289 289 290 290 290 289 289 288 287 286 286 286 288 289 291 293 295 297 300 302 304 306 307 309 310 311 311 312 312 313 314 314 315 315 315 316 316 317 319 321 322 324 326 326 327 327 326 324 321 319 318 318 318 318 318 319 320 322 323 324 325 326 328 329 329 330 331 332 332 332 332 332 332 333 334 335 337 339 341 342 342 341 340 340 339
288 289 290 290 291 290 289 288 288 287 286 287 288 290 292 294 296 298 300 302 304 305 307 308 309 310 311 311 312 313 314 314 315 315 316 316 316 317 318 318 320 322 323 325 325 326 327 327 325 323 320 319 319 320 320 320 320 321 323 324 325 326 327 328 329 330 331 331 332 332 332 332 332 333 334 335 336 337 339 341 342 342 341 340 340 339
288 289 290 291 291 291 290 289 289 288 288 289 290 292 294 296 298 300 302 303 305 306 308 309 310 310 311 311 312 313 314 315 316 316 317 317 318 318 319 320 321 322 323 325 325 326 327 327 326 324 322 321 320 321 322 321 321 322 323 325 326 327 328 329 330 330 331 331 331 331 332 332 333 334 336 337 337 338 339 340 342 342 341 340 339 338
Height
3090 3090 3090 3091 3091 3091 3091 3091 3092 3092 3092 3092 3092 3092 3092 3091 3091 3091 3091 3091 3090 3089 3089 3088 3088 3087 3086 3085 3085 3084 3083 3082 3081 3080 3079 3079 3078 3077 3076 3075 3074 3072 3071 3071 3070 3069 3067 3066 3065 3064 3062 3061 3060 3059 3057 3056 3055 3053 3052 3050 3049 3047 3046 3045 3043 3042 3040 3039 3038 3036 3035 3034 3033 3032 3031 3030 3029 3028 3027 3026 3025 3024 3023 3023 3022 3021
3088 3088 3088 3088 3089 3089 3089 3090 3090 3090 3090 3090 3090 3090 3089 3089 3088 3088 3088 3088 3087 3086 3086 3086 3085 3084 3083 3082 3081 3081 3080 3079 3078 3077 3076 3075 3074 3073 3072 3071 3071 3069 3068 3067 3066 3065 3064 3063 3061 3060 3059 3057 3056 3055 3053 3052 3051 3049 3048 3046 3045 3044 3042 3041 3039 3038 3037 3036 3034 3033 3032 3031 3030 3028 3027 3026 3026 3025 3024 3023 3022 3021 3021 3020 3019 3018
3086 3086 3087 3088 3088 3088 3087 3087 3088 3088 3087 3087 3087 3087 3086 3086 3086 3085 3085 3085 3084 3084 3083 3082 3082 3081 3080 3079 3078 3078 3077 3076 3075 3074 3073 3072 3071 3070 3069 3068 3067 3066 3065 3064 3063 3061 3060 3059 3057 3056 3055 3053 3052 3051 3049 3048 3046 3045 3044 3042 3041 3040 3038 3037 3036 3035 3033 3032 3031 3030 3028 3027 3026 3025 3024 3023 3022 3022 3021 3020 3019 3018 3018 3017 3016 3015
3085 3085 3085 3086 3086 3086 3085 3085 3085 3085 3085 3084 3084 3084 3083 3083 3082 3082 3082 3081 3081 3080 3080 3079 3078 3078 3077 3076 3075 3075 3074 3073 3072 3071 3070 3069 3068 3067 3066 3065 3064 3063 3061 3060 3059 3058 3056 3055 3054 3052 3051 3050 3048 3047 3046 3044 3043 3041 3040 3039 3037 3036 3035 3034 3032 3031 3030 3028 3027 3026 3025 3024 3023 3022 3021 3021 3020 3019 3018 3017 3016 3016 3015 3014 3013 3012
3083 3083 3083 3083 3083 3083 3082 3082 3082 3082 3082 3082 3081 3081 3080 3079 3079 3078 3078 3078 3077 3077 3076 3075 3075 3074 3073 3072 3072 3071 3071 3070 3069 3068 3067 3066 3065 3064 3063 3062 3061 3059 3058 3056 3055 3054 3052 3051 3050 3048 3047 3046 3044 3043 3041 3040 3039 3037 3036 3035 3034 3032 3031 3030 3029 3027 3026 3025 3024 3023 3022 3021 3020 3019 3018 3017 3017 3016 3015 3014 3013 3013 3012 3011 3010 3009
3081 3080 3080 3080 3080 3080 3080 3080 3080 3079 3079 3079 3078 3078 3077 3076 3076 3075 3075 3075 3074 3073 3072 3071 3071 3070 3070 3069 3069 3068 3067 3067 3066 3065 3064 3063 3062 3061 3059 3058 3057 3056 3054 3053 3051 3050 3049 3047 3046 3045 3043 3042 3040 3039 3038 3036 3035 3034 3033 3031 3030 3029 3028 3026 3025 3024 3023 3022 3021 3020 3019 3018 3017 3016 3016 3015 3014 3013 3012 3011 3011 3010 3009 3008 3007 3006
3077 3077 3076 3076 3076 3076 3076 3076 3076 3076 3076 3076 3076 3075 3074 3074 3073 3073 3072 3071 3071 3070 3069 3068 3068 3067 3066 3066 3065 3065 3064 3064 3063 3062 3061 3060 3058 3057 3056 3055 3053 3052 3050 3049 3047 3046 3045 3043 3042 3041 3039 3038 3036 3035 3034 3032 3031 3030 3029 3028 3026 3025 3024 3023 3022 3021 3020 3018 3017 3016 3016 3015 3014 3013 3012 3011 3011 3010 3009 3008 3007 3006 3006 3005 3004 3003
3074 3074 3074 3074 3074 3073 3073 3073 3073 3073 3073 3073 3072 3072 3071 3071 3071 3070 3069 3068 3067 3067 3066 3066 3065 3064 3063 3063 3062 3061 3061 3060 3059 3058 3057 3056 3055 3053 3052 3051 3049 3048 3046 3045 3043 3042 3040 3039 3037 3036 3035 3033 3032 3031 3030 3029 3027 3026 3025 3024 3023 3022 3021 3019 3018 3017 3016 3015 3014 3013 3012 3012 3011 3010 3009 3008 3008 3007 3006 3005 3004 3003 3003 3002 3001 3000
3072 3072 3072 3072 3072 3071 3071 3070 3070 3071 3071 3070 3069 3068 3068 3068 3067 3067 3066 3065 3064 3064 3064 3063 3062 3061 3060 3060 3059 3058 3057 3056 3055 3054 3053 3052 3051 3049 3048 3046 3045 3043 3042 3040 3039 3037 3036 3035 3033 3032 3031 3029 3028 3027 3026 3025 3024 3023 3022 3021 3019 3018 3017 3016 3015 3014 3013 3012 3011 3010 3009 3009 3008 3007 3006 3005 3004 3004 3003 3002 3001 3000 2999 2998 2997 2996
3070 3070 3069 3069 3069 3069 3068 3067 3067 3067 3067 3066 3066 3065 3065 3065 3064 3063 3063 3062 3061 3061 3061 3060 3059 3058 3057 3056 3056 3055 3054 3053 3051 3050 3049 3048 3046 3045 3043 3042 3041 3039 3038 3036 3035 3033 3031 3030 3029 3028 3026 3025 3024 3023 3022 3021 3020 3019 3018 3017 3016 3015 3014 3013 3011 3011 3010 3009 3008 3007 3006 3005 3005 3004 3003 3002 3001 3001 3000 2999 2998 2997 2996 2995 2994 2993
3066 3066 3066 3066 3066 3066 3066 3065 3064 3064 3064 3064 3063 3062 3061 3061 3061 3060 3060 3059 3059 3059 3058 3057 3056 3055 3054 3053 3052 3051 3051 3049 3047 3046 3045 3043 3042 3041 3039 3038 3036 3035 3034 3032 3030 3029 3027 3026 3025 3024 3022 3021 3021 3020 3019 3018 3017 3016 3015 3014 3012 3011 3010 3009 3008 3007 3006 3006 3005 3004 3003 3002 3001 3001 3000 2999 2998 2997 2996 2996 2995 2994 2993 2992 2991 2990
3063 3063 3063 3063 3062 3062 3062 3062 3061 3061 3061 3061 3060 3059 3058 3058 3058 3058 3057 3056 3056 3056 3055 3054 3052 3051 3050 3050 3048 3047 3046 3045 3044 3042 3041 3039 3038 3036 3036 3034 3032 3031 3029 3027 3026 3024 3023 3022 3021 3020 3018 3018 3017 3016 3015 3014 3013 3012 3011 3010 3009 3008 3007 3006 3005 3004 3003 3002 3002 3001 3000 2999 2998 2998 2997 2996 2995 2994 2993 2992 2991 2990 2989 2988 2987 2986
3061 3061 3060 3060 3060 3059 3059 3059 3058 3058 3057 3057 3057 3056 3055 3054 3054 3055 3054 3052 3052 3052 3052 3051 3049 3047 3046 3046 3045 3044 3042 3041 3040 3039 3038 3036 3034 3033 3032 3030 3028 3026 3025 3023 3021 3020 3019 3018 3017 3016 3014 3014 3013 3012 3011 3011 3010 3009 3008 3007 3006 3005 3004 3003 3002 3001 3000 3000 2999 2998 2997 2996 2996 2995 2994 2993 2992 2991 2990 2989 2988 2987 2986 2985 2984 2984
3057 3057 3057 3057 3056 3056 3056 3056 3056 3055 3054 3054 3054 3053 3052 3051 3051 3051 3051 3049 3048 3048 3048 3048 3046 3044 3043 3042 3041 3041 3040 3038 3037 3036 3035 3033 3031 3029 3029 3027 3025 3022 3021 3020 3018 3016 3015 3014 3014 3012 3011 3010 3010 3009 3008 3007 3006 3006 3005 3004 3003 3002 3001 3000 2999 2998 2997 2997 2996 2995 2994 2993 2993 2992 2991 2990 2989 2988 2987 2986 2985 2984 2983 2982 2982 2981
3055 3055 3054 3054 3054 3053 3053 3053 3053 3052 3051 3051 3051 3051 3049 3048 3047 3047 3047 3046 3045 3044 3044 3044 3043 3041 3039 3038 3038 3037 3036 3035 3034 3033 3032 3030 3027 3026 3025 3024 3021 3019 3017 3017 3015 3013 3011 3011 3011 3009 3008 3007 3006 3006 3005 3004 3003 3002 3001 3000 2999 2998 2997 2997 2996 2995 2994 2994 2993 2992 2991 2991 2990 2989 2988 2987 2986 2985 2984 2983 2982 2981 2981 2980 2979 2978
3052 3052 3052 3051 3051 3051 3051 3051 3051 3050 3049 3048 3048 3047 3046 3045 3044 3044 3044 3043 3042 3041 3041 3040 3040 3038 3036 3034 3033 3034 3034 3032 3031 3029 3029 3027 3024 3022 3021 3021 3018 3016 3014 3013 3012 3011 3009 3008 3007 3006 3005 3004 3003 3002 3002 3001 3000 2999 2998 2997 2996 2995 2995 2994 2993 2992 2991 2991 2990 2989 2988 2987 2986 2986 2985 2984 2983 2982 2981 2981 2980 2979 2978 2977 2976 2975
3050 3050 3050 3049 3049 3048 3048 3048 3048 3047 3046 3045 3045 3044 3044 3042 3041 3041 3041 3040 3039 3038 3037 3036 3036 3035 3033 3031 3030 3030 3031 3030 3027 3026 3025 3024 3021 3018 3018 3017 3016 3013 3011 3010 3009 3008 3006 3005 3004 3003 3002 3002 3001 3000 2999 2998 2997 2996 2995 2994 2993 2992 2992 2991 2990 2990 2989 2988 2987 2986 2986 2985 2984 2983 2982 2981 2980 2980 2979 2978 2977 2976 2975 2974 2973 2972
3047 3047 3047 3047 3046 3046 3045 3045 3045 3044 3043 3042 3042 3041 3040 3040 3039 3038 3037 3036 3036 3035 3034 3033 3032 3031 3031 3029 3026 3025 3026 3027 3025 3022 3021 3020 3018 3016 3014 3014 3013 3011 3009 3007 3006 3005 3004 3003 3001 3001 3000 2999 2998 2997 2996 2995 2994 2993 2992 2992 2991 2990 2989 2989 2988 2987 2986 2985 2984 2984 2983 2982 2981 2980 2979 2978 2978 2977 2976 2975 2974 2973 2972 2971 2970 2968
3044 3044 3045 3044 3043 3043 3042 3042 3042 3041 3041 3040 3039 3038 3037 3036 3036 3035 3034 3033 3032 3031 3031 3030 3029 3028 3027 3026 3024 3022 3022 3022 3021 3019 3017 3016 3015 3013 3011 3011 3011 3008 3006 3005 3004 3003 3001 3000 2999 2998 2998 2997 2996 2995 2994 2993 2992 2991 2990 2989 2989 2988 2987 2986 2985 2984 2984 2983 2982 2981 2980 2979 2978 2977 2977 2976 2975 2974 2973 2972 2971 2970 2969 2967 2966 2965
3041 3041 3041 3041 3041 3040 3039 3039 3039 3039 3038 3036 3036 3035 3034 3033 3033 3032 3031 3030 3029 3028 3027 3027 3026 3024 3023 3023 3021 3018 3018 3018 3017 3015 3014 3013 3011 3010 3009 3009 3008 3006 3004 3002 3001 3001 2999 2998 2996 2996 2995 2994 2993 2992 2991 2990 2989 2989 2988 2987 2986 2985 2985 2984 2983 2982 2981 2980 2979 2978 2978 2977 2976 2975 2974 2973 2972 2971 2970 2969 2968 2966 2965 2964 2962 2961
3039 3038 3038 3038 3038 3037 3036 3035 3036 3036 3035 3034 3033 3032 3031 3031 3030 3029 3028 3027 3026 3025 3024 3023 3022 3021 3020 3019 3017 3015 3014 3014 3013 3012 3011 3010 3009 3007 3006 3006 3006 3004 3001 3000 2999 2998 2997 2996 2994 2993 2993 2992 2991 2990 2989 2988 2987 2986 2985 2985 2984 2983 2982 2981 2980 2979 2979 2978 2977 2976 2975 2974 2973 2972 2971 2970 2969 2968 2967 2966 2964 2963 2961 2960 2959 2957
3036 3036 3035 3036 3036 3035 3033 3033 3032 3032 3032 3031 3031 3029 3028 3027 3027 3026 3025 3024 3023 3022 3021 3020 3019 3017 3016 3015 3013 3011 3010 3011 3010 3009 3008 3007 3006 3004 3004 3004 3003 3001 2999 2998 2997 2996 2995 2993 2992 2991 2991 2990 2988 2987 2986 2986 2985 2984 2983 2982 2981 2980 2980 2979 2978 2977 2976 2975 2974 2973 2972 2971 2971 2970 2968 2967 2966 2965 2963 2962 2961 2959 2958 2956 2955 2954
3034 3033 3033 3033 3033 3032 3031 3030 3030 3029 3029 3029 3028 3026 3025 3025 3024 3023 3022 3021 3021 3020 3018 3017 3016 3014 3013 3011 3010 3008 3007 3007 3007 3006 3005 3004 3003 3001 3001 3001 3001 2999 2997 2996 2996 2995 2993 2991 2990 2990 2989 2987 2986 2985 2984 2983 2982 2981 2981 2980 2979 2978 2977 2976 2975 2974 2973 2973 2972 2971 2970 2969 2968 2966 2965 2964 2963 2961 2960 2959 2957 2956 2954 2953 2951 2950
3031 3031 3031 3030 3030 3029 3029 3028 3027 3026 3026 3026 3025 3024 3022 3022 3021 3020 3019 3018 3017 3016 3015 3014 3012 3011 3009 3009 3007 3006 3004 3004 3004 3004 3002 3001 3000 2999 2998 2999 2998 2997 2995 2994 2994 2993 2991 2990 2988 2988 2987 2986 2984 2983 2982 2981 2980 2979 2978 2977 2976 2976 2975 2974 2973 2972 2971 2970 2969 2968 2967 2966 2965 2963 2962 2961 2960 2958 2957 2955 2954 2952 2951 2949 2948 2946
3029 3028 3028 3027 3027 3026 3026 3025 3024 3024 3023 3022 3022 3021 3020 3018 3017 3016 3016 3014 3014 3013 3012 3011 3009 3008 3007 3006 3005 3003 3002 3002 3002 3001 3000 2999 2998 2996 2996 2996 2996 2995 2993 2992 2992 2991 2990 2988 2987 2986 2985 2984 2983 2981 2981 2979 2978 2977 2976 2975 2974 2973 2972 2971 2971 2970 2969 2968 2967 2966 2964 2963 2962 2961 2959 2958 2956 2955 2953 2952 2951 2949 2947 2946 2944 2943
3026 3026 3025 3025 3024 3024 3023 3022 3021 3021 3020 3020 3019 3018 3016 3016 3015 3013 3012 3011 3011 3010 3009 3008 3006 3006 3005 3004 3002 3001 3000 3000 3000 2999 2998 2997 2996 2994 2993 2993 2994 2993 2991 2990 2990 2990 2989 2987 2986 2985 2984 2982 2981 2980 2979 2978 2976 2976 2974 2973 2972 2971 2970 2969 2968 2967 2966 2965 2964 2963 2961 2960 2959 2957 2956 2954 2953 2951 2950 2949 2947 2946 2944 2942 2941 2939
3024 3023 3023 3022 3021 3021 3020 3020 3019 3018 3017 3016 3016 3015 3014 3013 3012 3011 3009 3008 3008 3007 3006 3005 3004 3003 3002 3001 3000 2999 2998 2998 2997 2996 2996 2995 2993 2992 2991 2991 2991 2990 2989 2988 2988 2988 2987 2986 2985 2983 2982 2981 2980 2978 2977 2976 2975 2974 2972 2971 2970 2969 2968 2967 2966 2965 2964 2963 2961 2960 2959 2957 2956 2954 2953 2951 2950 2948 2947 2945 2944 2942 2941 2939 2937 2936
3021 3021 3020 3020 3019 3018 3017 3016 3016 3015 3014 3013 3012 3011 3011 3010 3009 3008 3006 3006 3006 3005 3004 3002 3002 3001 3000 2999 2997 2996 2996 2996 2995 2994 2993 2993 2991 2990 2989 2989 2988 2988 2987 2986 2986 2986 2985 2984 2983 2982 2981 2980 2978 2977 2976 2974 2973 2972 2970 2969 2968 2967 2966 2965 2964 2962 2961 2960 2959 2957 2956 2954 2953 2951 2950 2948 2947 2946 2944 2942 2941 2939 2937 2936 2934 2932
3019 3018 3018 3017 3016 3015 3015 3014 3013 3012 3011 3010 3009 3008 3007 3007 3006 3005 3004 3003 3003 3002 3001 3000 3000 2999 2998 2997 2996 2994 2994 2994 2993 2993 2991 2991 2989 2988 2988 2987 2986 2985 2985 2984 2984 2984 2983 2982 2981 2980 2979 2978 2976 2975 2974 2972 2971 2970 2968 2967 2966 2965 2963 2962 2961 2960 2959 2957 2956 2955 2953 2951 2950 2949 2947 2946 2944 2942 2941 2939 2937 2936 2934 2932 2931 2929
3016 3016 3015 3014 3013 3012 3012 3011 3010 3009 3008 3007 3006 3006 3005 3004 3004 3003 3002 3001 3001 3000 2999 2998 2997 2997 2996 2995 2994 2992 2991 2991 2991 2991 2990 2989 2988 2987 2986 2986 2984 2983 2982 2981 2981 2981 2981 2980 2979 2978 2976 2976 2974 2973 2971 2970 2969 2967 2966 2965 2963 2962 2961 2960 2959 2957 2956 2955 2953 2952 2950 2949 2947 2946 2944 2943 2941 2939 2938 2936 2934 2932 2930 2929 2927 2925
3013 3012 3012 3011 3010 3010 3009 3008 3007 3006 3006 3005 3004 3003 3003 3002 3001 3001 3000 2999 2998 2997 2996 2996 2995 2994 2994 2993 2992 2991 2990 2990 2989 2989 2988 2987 2986 2985 2985 2984 2982 2981 2980 2979 2978 2977 2977 2977 2977 2976 2974 2973 2972 2971 2969 2968 2966 2965 2964 2962 2961 2960 2959 2957 2956 2955 2953 2952 2951 2949 2947 2946 2945 2943 2941 2940 2938 2936 2935 2933 2931 2929 2927 2925 2923 2921
3011 3010 3009 3008 3008 3007 3006 3006 3005 3004 3003 3003 3002 3001 3001 3000 2999 2998 2997 2997 2996 2995 2995 2994 2993 2992 2992 2991 2991 2990 2989 2988 2988 2987 2986 2985 2984 2983 2983 2982 2981 2979 2978 2977 2976 2975 2974 2974 2973 2973 2972 2971 2969 2968 2966 2965 2964 2962 2961 2960 2958 2957 2956 2955 2953 2952 2951 2949 2948 2946 2945 2943 2942 2940 2939 2937 2935 2934 2932 2930 2928 2926 2924 2922 2920 2917
3008 3007 3006 3006 3005 3005 3004 3003 3003 3002 3001 3001 3000 2999 2999 2998 2997 2996 2996 2995 2994 2993 2993 2992 2991 2991 2990 2990 2989 2988 2987 2986 2986 2985 2985 2984 2983 2982 2981 2980 2979 2978 2976 2976 2974 2973 2971 2971 2970 2970 2969 2968 2966 2965 2964 2962 2961 2959 2958 2957 2956 2954 2953 2952 2951 2949 2948 2946 2945 2944 2942 2941 2939 2937 2936 2934 2932 2931 2929 2927 2925 2923 2920 2918 2916 2913
3005 3005 3004 3003 3003 3002 3002 3001 3001 3000 3000 2999 2998 2997 2997 2996 2995 2995 2994 2993 2992 2992 2991 2991 2990 2989 2989 2988 2988 2987 2986 2985 2984 2983 2983 2982 2981 2980 2979 2978 2977 2976 2975 2974 2972 2971 2970 2969 2967 2966 2966 2965 2964 2963 2961 2959 2958 2956 2955 2954 2953 2951 2950 2949 2948 2946 2945 2944 2942 2941 2940 2938 2936 2935 2933 2932 2930 2928 2926 2924 2922 2919 2917 2914 2911 2908
3003 3002 3002 3001 3001 3000 3000 2999 2999 2998 2998 2997 2996 2996 2995 2994 2994 2993 2992 2992 2991 2990 2990 2989 2989 2988 2987 2987 2986 2986 2984 2983 2982 2981 2981 2980 2979 2978 2977 2976 2975 2974 2972 2971 2970 2969 2968 2966 2965 2964 2962 2961 2961 2960 2958 2956 2955 2954 2952 2951 2950 2948 2947 2946 2945 2943 2942 2941 2940 2938 2936 2935 2934 2932 2931 2929 2927 2925 2923 2921 2919 2916 2913 2911 2907 2904
3001 3001 3000 3000 2999 2999 2998 2998 2997 2997 2996 2996 2995 2994 2993 2993 2992 2991 2991 2990 2990 2989 2988 2988 2987 2987 2986 2986 2985 2984 2983 2982 2981 2980 2979 2978 2977 2976 2976 2974 2973 2972 2971 2969 2968 2967 2965 2964 2963 2961 2960 2958 2957 2956 2956 2954 2952 2951 2950 2949 2947 2946 2944 2943 2942 2940 2939 2938 2936 2935 2934 2932 2931 2929 2928 2926 2924 2922 2920 2918 2916 2913 2910 2908 2905 2901
2999 2999 2998 2998 2997 2997 2996 2996 2996 2995 2995 2994 2993 2992 2992 2991 2991 2990 2989 2989 2988 2988 2987 2986 2986 2985 2985 2984 2983 2982 2981 2981 2979 2978 2977 2976 2975 2975 2973 2972 2971 2970 2968 2967 2966 2964 2963 2961 2960 2959 2957 2956 2954 2953 2952 2951 2950 2949 2947 2946 2945 2944 2942 2941 2939 2937 2936 2935 2933 2932 2931 2929 2928 2926 2925 2923 2921 2920 2918 2916 2913 2911 2908 2905 2903 2900
2998 2997 2996 2996 2996 2995 2995 2994 2994 2993 2993 2992 2991 2991 2990 2990 2989 2989 2988 2988 2987 2986 2986 2985 2984 2984 2983 2982 2981 2981 2980 2979 2978 2976 2976 2974 2973 2972 2971 2970 2969 2968 2966 2965 2963 2961 2960 2959 2957 2956 2954 2953 2952 2951 2949 2948 2946 2946 2945 2944 2943 2941 2940 2938 2936 2935 2934 2932 2931 2929 2928 2926 2925 2923 2922 2920 2919 2917 2915 2913 2911 2908 2906 2903 2901 2899
2996 2996 2995 2994 2994 2994 2993 2993 2992 2992 2991 2991 2990 2989 2989 2988 2988 2987 2987 2986 2986 2986 2985 2984 2983 2982 2981 2981 2980 2979 2978 2977 2976 2975 2974 2972 2971 2970 2969 2968 2967 2966 2965 2963 2961 2959 2958 2956 2954 2953 2951 2950 2949 2948 2947 2946 2944 2943 2942 2941 2941 2940 2938 2936 2934 2933 2931 2930 2928 2926 2925 2923 2922 2920 2919 2917 2915 2913 2911 2909 2907 2905 2902 2900 2898 2896
2994 2994 2993 2993 2992 2992 2992 2991 2991 2990 2990 2989 2989 2988 2987 2987 2987 2986 2986 2986 2985 2984 2984 2983 2982 2981 2980 2979 2978 2977 2976 2975 2974 2973 2972 2971 2969 2968 2967 2966 2965 2964 2962 2961 2959 2958 2956 2954 2952 2951 2949 2948 2946 2946 2945 2943 2942 2940 2939 2938 2938 2937 2936 2934 2932 2931 2929 2927 2926 2924 2922 2921 2919 2917 2916 2914 2912 2910 2907 2905 2903 2901 2898 2896 2893 2891
2993 2992 2992 2991 2991 2991 2990 2990 2990 2989 2988 2988 2987 2987 2986 2986 2986 2985 2985 2984 2984 2983 2982 2981 2981 2980 2978 2977 2976 2975 2974 2973 2972 2971 2970 2969 2967 2966 2965 2964 2963 2962 2961 2959 2958 2956 2954 2952 2951 2949 2947 2946 2945 2944 2943 2941 2940 2938 2937 2936 2935 2934 2933 2932 2930 2928 2927 2925 2923 2921 2919 2917 2916 2914 2912 2911 2909 2907 2904 2902 2899 2897 2895 2892 2890 2887
2991 2991 2990 2990 2990 2989 2989 2989 2988 2988 2987 2987 2986 2986 2986 2985 2985 2984 2984 2983 2982 2982 2981 2981 2980 2979 2977 2976 2975 2973 2972 2971 2970 2969 2968 2967 2966 2965 2964 2962 2961 2960 2959 2957 2956 2955 2953 2951 2949 2947 2946 2944 2943 2942 2941 2940 2938 2936 2935 2934 2932 2932 2931 2930 2928 2926 2925 2923 2921 2919 2917 2915 2913 2911 2910 2908 2906 2904 2902 2900 2897 2895 2892 2890 2887 2885
2990 2989 2989 2989 2988 2988 2988 2987 2987 2986 2986 2986 2986 2985 2985 2984 2984 2983 2983 2982 2981 2981 2980 2980 2979 2978 2977 2975 2974 2972 2971 2970 2969 2968 2966 2966 2965 2963 2962 2961 2960 2958 2957 2956 2955 2953 2952 2950 2948 2946 2944 2943 2941 2940 2939 2938 2936 2935 2933 2932 2931 2929 2928 2927 2926 2924 2923 2921 2919 2916 2914 2912 2910 2908 2906 2905 2903 2901 2900 2898 2895 2893 2890 2887 2885 2883
2988 2988 2988 2988 2987 2987 2986 2986 2986 2986 2985 2985 2984 2984 2984 2983 2983 2982 2982 2981 2981 2980 2979 2978 2978 2977 2976 2975 2974 2972 2971 2969 2967 2966 2965 2964 2963 2962 2961 2960 2958 2957 2956 2954 2953 2951 2950 2949 2947 2945 2943 2941 2940 2938 2937 2936 2935 2933 2932 2931 2929 2927 2926 2924 2923 2921 2920 2918 2916 2914 2911 2909 2907 2905 2903 2902 2901 2899 2897 2896 2893 2891 2888 2886 2883 2881
2987 2987 2987 2986 2986 2986 2985 2985 2985 2984 2984 2983 2983 2983 2982 2982 2982 2981 2981 2980 2979 2979 2978 2977 2976 2976 2975 2974 2973 2971 2970 2969 2967 2966 2964 2963 2962 2961 2960 2958 2957 2956 2954 2953 2951 2950 2948 2947 2945 2944 2942 2941 2939 2937 2936 2934 2933 2931 2930 2929 2927 2926 2924 2922 2920 2918 2916 2915 2913 2911 2909 2906 2904 2902 2900 2899 2898 2896 2895 2893 2891 2888 2886 2883 2881 2878
2986 2986 2986 2985 2985 2984 2984 2984 2983 2983 2982 2982 2982 2982 2981 2981 2981 2980 2980 2979 2978 2977 2976 2976 2975 2974 2973 2972 2971 2970 2969 2968 2966 2965 2964 2962 2961 2959 2958 2957 2956 2954 2953 2951 2950 2948 2947 2945 2943 2942 2941 2939 2938 2936 2934 2932 2931 2929 2928 2927 2925 2924 2922 2920 2918 2916 2914 2912 2911 2908 2906 2904 2901 2899 2897 2896 2894 2893 2892 2890 2887 2885 2882 2880 2877 2875
2985 2985 2984 2984 2983 2983 2983 2982 2982 2981 2981 2981 2981 2981 2980 2980 2979 2979 2978 2977 2976 2976 2975 2974 2973 2972 2971 2970 2969 2968 2967 2966 2965 2964 2963 2961 2960 2958 2957 2956 2954 2953 2951 2950 2949 2947 2946 2944 2942 2940 2939 2937 2936 2935 2933 2931 2929 2927 2926 2924 2923 2921 2920 2918 2916 2914 2912 2910 2908 2906 2904 2901 2899 2896 2894 2892 2891 2890 2888 2886 2884 2881 2878 2876 2873 2871
2983 2983 2983 2982 2982 2982 2981 2981 2981 2980 2980 2980 2979 2979 2979 2978 2978 2977 2976 2976 2975 2974 2973 2972 2971 2970 2969 2968 2967 2966 2966 2964 2963 2962 2961 2960 2959 2957 2956 2955 2953 2952 2950 2949 2947 2946 2944 2942 2941 2938 2936 2935 2934 2933 2931 2929 2927 2926 2924 2922 2920 2918 2917 2916 2914 2912 2911 2909 2906 2904 2901 2899 2896 2893 2891 2889 2887 2886 2884 2882 2881 2878 2875 2872 2869 2866
2982 2982 2981 2981 2981 2980 2980 2980 2979 2979 2979 2978 2978 2977 2977 2976 2976 2976 2975 2974 2973 2972 2971 2971 2970 2969 2968 2967 2966 2965 2964 2962 2961 2960 2959 2958 2956 2956 2954 2953 2952 2951 2949 2948 2946 2945 2944 2942 2939 2937 2935 2933 2931 2930 2929 2927 2925 2924 2922 2920 2918 2916 2914 2913 2911 2910 2908 2906 2904 2902 2900 2897 2894 2891 2888 2886 2883 2881 2880 2878 2876 2874 2871 2868 2865 2863
2981 2981 2980 2980 2979 2979 2979 2978 2978 2978 2977 2977 2976 2976 2975 2975 2974 2974 2973 2972 2971 2971 2970 2969 2968 2967 2966 2965 2964 2963 2962 2961 2959 2958 2957 2956 2954 2953 2952 2951 2949 2948 2947 2946 2946 2944 2943 2941 2939 2936 2933 2931 2929 2928 2926 2925 2923 2921 2920 2918 2916 2914 2912 2911 2909 2907 2906 2904 2902 2900 2898 2895 2892 2889 2886 2883 2880 2878 2876 2874 2872 2870 2867 2865 2862 2860
2979 2979 2979 2978 2978 2978 2977 2977 2977 2976 2976 2976 2975 2974 2974 2973 2972 2972 2971 2970 2970 2969 2968 2967 2966 2965 2964 2963 2962 2961 2960 2959 2957 2956 2955 2953 2952 2951 2949 2948 2946 2945 2944 2943 2943 2942 2941 2940 2939 2937 2934 2931 2928 2926 2924 2922 2921 2919 2918 2916 2915 2913 2910 2908 2907 2905 2904 2902 2900 2897 2895 2892 2890 2887 2884 2881 2877 2875 2872 2871 2869 2867 2864 2861 2859 2856